FW6720 Weather Reports


time (UTC)temp
F
wind
direction
speed
knots
gust
knots
rain 1hr
in
rain 24hr
in
rain mn
in
humidity
%
barometer
mb
20260503212723 89 41 0.0 0.0 0.00 0.00 0.00 30 1012.0
20260503212220 89 41 0.0 0.0 0.00 0.00 0.00 25 1012.3
20260503211718 89 41 1.7 1.7 0.00 0.00 0.00 25 1012.3
20260503211213 89 42 0.0 0.0 0.00 0.00 0.00 26 1012.1
20260503210709 88 40 0.0 0.0 0.00 0.00 0.00 28 1012.2
20260503210207 88 41 0.9 1.7 0.00 0.00 0.00 27 1012.4
20260503205702 88 40 0.0 0.0 0.00 0.00 0.00 26 1012.4
20260503205158 87 41 0.0 0.0 0.00 0.00 0.00 25 1012.4
20260503204655 88 41 0.0 0.0 0.00 0.00 0.00 27 1012.6
20260503204153 89 41 0.0 0.0 0.00 0.00 0.00 26 1012.7
20260503203649 87 41 0.0 0.0 0.00 0.00 0.00 30 1012.8
20260503203147 87 41 0.0 0.0 0.00 0.00 0.00 30 1012.8
20260503202644 87 42 0.0 0.0 0.00 0.00 0.00 27 1012.7
20260503202142 87 41 0.0 0.0 0.00 0.00 0.00 30 1012.9
20260503201640 86 42 0.0 0.0 0.00 0.00 0.00 26 1012.9
20260503201137 86 42 0.9 1.7 0.00 0.00 0.00 26 1013.0
20260503200633 87 41 0.0 0.0 0.00 0.00 0.00 24 1012.9
20260503200130 87 40 0.0 0.0 0.00 0.00 0.00 28 1013.0
20260503195627 87 40 0.0 0.0 0.00 0.00 0.00 26 1013.2
20260503195124 87 40 0.0 0.0 0.00 0.00 0.00 28 1013.2
20260503194621 87 39 2.6 4.3 0.00 0.00 0.00 26 1013.3
20260503194116 87 40 0.0 0.0 0.00 0.00 0.00 30 1013.2
20260503193613 87 40 0.9 0.9 0.00 0.00 0.00 30 1013.4
20260503193108 86 40 0.0 0.0 0.00 0.00 0.00 30 1013.5
20260503192604 86 39 0.0 0.0 0.00 0.00 0.00 28 1013.4
20260503192100 86 39 0.0 0.0 0.00 0.00 0.00 32 1013.6
20260503191557 86 40 0.0 0.0 0.00 0.00 0.00 28 1013.6
20260503191054 85 40 0.0 0.0 0.00 0.00 0.00 32 1013.4
20260503190551 86 39 0.0 0.0 0.00 0.00 0.00 32 1013.5
20260503190048 85 40 0.0 0.0 0.00 0.00 0.00 30 1013.4
20260503185544 85 40 0.9 0.9 0.00 0.00 0.00 30 1013.6
20260503185044 85 39 0.0 0.0 0.00 0.00 0.00 32 1013.8
20260503184540 86 39 0.0 0.0 0.00 0.00 0.00 32 1014.0
20260503184038 86 39 0.0 0.0 0.00 0.00 0.00 36 1013.9
20260503183534 86 39 0.0 0.0 0.00 0.00 0.00 32 1013.8
20260503183031 84 39 0.0 0.0 0.00 0.00 0.00 34 1013.8
20260503182530 84 39 0.0 0.0 0.00 0.00 0.00 40 1014.0
20260503182027 84 39 0.0 0.0 0.00 0.00 0.00 40 1013.7
20260503181524 83 39 0.0 0.0 0.00 0.00 0.00 45 1014.1
20260503181020 82 39 0.0 0.0 0.00 0.00 0.00 44 1014.0
20260503180518 81 39 0.0 0.0 0.00 0.00 0.00 40 1013.9
20260503180015 81 39 0.0 0.0 0.00 0.00 0.00 46 1014.0
20260503175512 82 39 0.0 0.0 0.00 0.00 0.00 45 1013.8
20260503175009 80 39 0.0 0.0 0.00 0.00 0.00 46 1013.9
20260503174506 79 39 0.0 0.0 0.00 0.00 0.00 51 1014.2
20260503174002 80 39 0.0 0.0 0.00 0.00 0.00 50 1014.1
20260503173457 78 38 0.0 0.0 0.00 0.00 0.00 51 1014.1
20260503172954 77 39 0.0 0.0 0.00 0.00 0.00 56 1014.0
20260503172452 77 38 0.0 0.0 0.00 0.00 0.00 53 1014.1
20260503171948 76 38 0.0 0.0 0.00 0.00 0.00 55 1014.2
20260503171445 75 38 0.0 0.0 0.00 0.00 0.00 56 1014.2
20260503170943 75 38 0.0 0.0 0.00 0.00 0.00 54 1014.3
20260503170438 74 38 0.0 0.0 0.00 0.00 0.00 60 1014.4
20260503150831 51 33 0.0 0.0 0.00 0.00 0.00 99 1014.9
20260503150327 50 33 0.0 0.0 0.00 0.00 0.00 98 1015.0
20260503140251 48 33 0.0 0.0 0.00 0.00 0.00 98 1014.7
20260503131221 48 33 0.0 0.0 0.00 0.00 0.00 98 1014.7
20260503130719 48 33 0.0 0.0 0.00 0.00 0.00 98 1014.9
20260503130216 48 33 0.0 0.0 0.00 0.00 0.00 98 1014.5
20260503120141 49 34 0.0 0.0 0.00 0.00 0.00 98 1015.0
20260503110609 49 34 0.0 0.0 0.00 0.00 0.00 98 1014.8
20260503110106 49 34 0.0 0.0 0.00 0.00 0.00 98 1015.2
20260503090450 51 35 0.0 0.0 0.00 0.00 0.00 96 1015.2
20260503081416 52 35 0.0 0.0 0.00 0.00 0.00 95 1015.1
20260503080913 52 35 0.0 0.0 0.00 0.00 0.00 94 1015.4
20260503080410 52 35 0.0 0.0 0.00 0.00 0.00 94 1015.3
20260503072846 53 35 0.0 0.0 0.00 0.00 0.00 93 1015.5
20260503072343 53 35 0.0 0.0 0.00 0.00 0.00 93 1015.6
20260503071840 53 35 0.0 0.0 0.00 0.00 0.00 93 1015.5
20260503071337 53 35 0.0 0.0 0.00 0.00 0.00 93 1015.5
20260503070833 53 35 0.0 0.0 0.00 0.00 0.00 92 1015.4
20260503070332 53 35 0.0 0.0 0.00 0.00 0.00 91 1015.2
20260503060250 55 35 0.0 0.0 0.00 0.00 0.00 87 1015.5
20260503054737 56 35 0.0 0.0 0.00 0.00 0.00 87 1015.8
20260503054234 56 35 0.0 0.0 0.00 0.00 0.00 86 1015.7
20260503053732 56 35 0.0 0.0 0.00 0.00 0.00 87 1015.8
20260503053231 56 35 0.0 0.0 0.00 0.00 0.00 87 1015.5
20260503052726 56 35 0.0 0.0 0.00 0.00 0.00 87 1015.6
20260503052223 56 35 0.0 0.0 0.00 0.00 0.00 86 1015.7
20260503051718 57 35 0.0 0.0 0.00 0.00 0.00 86 1015.8
20260503051217 57 35 0.0 0.0 0.00 0.00 0.00 86 1015.7
20260503050713 57 35 0.0 0.0 0.00 0.00 0.00 86 1015.6
20260503050209 57 35 0.0 0.0 0.00 0.00 0.00 86 1015.7
20260503045707 57 35 0.0 0.0 0.00 0.00 0.00 86 1015.7
20260503045204 57 35 0.0 0.0 0.00 0.00 0.00 86 1015.6
20260503044700 58 35 0.0 0.0 0.00 0.00 0.00 86 1015.6
20260503044158 58 35 0.0 0.0 0.00 0.00 0.00 85 1015.5
20260503043654 58 35 0.0 0.0 0.00 0.00 0.00 85 1015.6
20260503043152 58 35 0.0 0.0 0.00 0.00 0.00 85 1015.6
20260503042648 58 35 0.0 0.0 0.00 0.00 0.00 85 1015.4
20260503042144 59 35 0.0 0.0 0.00 0.00 0.00 85 1015.6
20260503041641 59 35 0.0 0.0 0.00 0.00 0.00 84 1015.4
20260503041138 59 35 0.0 0.0 0.00 0.00 0.00 84 1015.4
20260503040636 59 35 0.0 0.0 0.00 0.00 0.00 84 1015.5
20260503040133 60 35 0.0 0.0 0.00 0.00 0.00 83 1015.1
20260503035629 60 35 0.0 0.0 0.00 0.00 0.00 83 1015.2
20260503035128 60 35 0.0 0.0 0.00 0.00 0.00 83 1015.1
20260503034625 60 35 0.0 0.0 0.00 0.00 0.00 82 1015.0
20260503034122 61 35 0.0 0.0 0.00 0.00 0.00 81 1014.9
20260503033619 61 35 0.0 0.0 0.00 0.00 0.00 81 1014.8
20260503033116 61 35 0.0 0.0 0.00 0.00 0.00 80 1014.8
20260503032614 62 35 0.0 0.0 0.00 0.00 0.00 79 1014.7
20260503032113 62 34 0.0 0.0 0.00 0.00 0.00 79 1014.9
20260503031610 62 34 0.0 0.0 0.00 0.00 0.00 79 1014.8
20260503031108 63 34 0.0 0.0 0.00 0.00 0.00 79 1014.6
20260503030603 63 34 0.0 0.0 0.00 0.00 0.00 79 1014.5
20260503030100 64 34 0.0 0.0 0.00 0.00 0.00 78 1014.5
20260503025557 64 34 0.0 0.0 0.00 0.00 0.00 77 1014.2
20260503025055 64 34 0.0 0.0 0.00 0.00 0.00 77 1014.3
20260503024550 65 34 0.0 0.0 0.00 0.00 0.00 76 1014.1
20260503024048 65 34 0.0 0.0 0.00 0.00 0.00 76 1013.9
20260503023544 66 34 0.0 0.0 0.00 0.00 0.00 75 1013.6
20260503023042 66 34 0.0 0.0 0.00 0.00 0.00 74 1013.7
20260503022538 67 34 0.0 0.0 0.00 0.00 0.00 73 1013.6
20260503022033 67 34 0.0 0.0 0.00 0.00 0.00 72 1013.7
20260503021530 68 34 0.0 0.0 0.00 0.00 0.00 71 1013.6
20260503021027 68 34 0.0 0.0 0.00 0.00 0.00 71 1013.7
20260503020524 68 34 0.0 0.0 0.00 0.00 0.00 68 1013.7
20260503020021 69 34 0.0 0.0 0.00 0.00 0.00 68 1013.8
20260503015517 69 34 0.0 0.0 0.00 0.00 0.00 64 1013.6
20260503015015 69 34 0.0 0.0 0.00 0.00 0.00 66 1013.8
20260503014511 69 34 0.0 0.0 0.00 0.00 0.00 63 1013.8
20260503014009 69 34 0.0 0.0 0.00 0.00 0.00 64 1013.8
20260503013506 70 34 0.0 0.0 0.00 0.00 0.00 64 1013.9
20260503013003 71 34 0.0 0.0 0.00 0.00 0.00 56 1013.6
20260503012501 70 8 0.0 0.0 0.00 0.00 0.00 61 1013.8
20260503011956 71 8 0.0 0.0 0.00 0.00 0.00 59 1013.8
20260503011454 71 8 0.0 0.0 0.00 0.00 0.00 59 1013.5
20260503010950 71 8 0.0 0.0 0.00 0.00 0.00 59 1013.9
20260503010447 72 8 0.0 0.0 0.00 0.00 0.00 58 1013.8
20260503005944 72 8 0.0 0.0 0.00 0.00 0.00 58 1013.7
20260503005442 73 8 0.0 0.0 0.00 0.00 0.00 57 1013.8
20260503004938 73 8 0.0 0.0 0.00 0.00 0.00 55 1013.7
20260503004435 73 8 0.0 0.0 0.00 0.00 0.00 54 1014.1
20260503003933 73 8 0.0 0.0 0.00 0.00 0.00 55 1013.8
20260503003429 73 301 0.9 1.7 0.00 0.00 0.00 50 1013.9
20260503002927 73 56 0.0 0.0 0.00 0.00 0.00 51 1014.0
20260503002424 73 57 0.0 0.0 0.00 0.00 0.00 52 1013.8
20260503001920 73 7 0.0 0.0 0.00 0.00 0.00 49 1013.9
20260503001416 73 8 0.0 0.9 0.00 0.00 0.00 49 1014.0
20260503000914 72 8 0.0 0.0 0.00 0.00 0.00 54 1013.9
20260503000411 72 8 0.0 0.0 0.00 0.00 0.00 55 1013.8
20260502235908 72 9 0.0 0.0 0.00 0.00 0.00 58 1014.2
20260502235405 71 10 0.0 0.0 0.00 0.00 0.00 55 1014.1
20260502234903 71 10 0.0 0.0 0.00 0.00 0.00 55 1014.1
20260502234359 72 9 0.0 0.0 0.00 0.00 0.00 54 1013.9
20260502233856 72 8 0.0 0.0 0.00 0.00 0.00 54 1014.2
20260502233351 72 9 0.0 0.0 0.00 0.00 0.00 53 1014.2
20260502232849 73 9 0.0 0.0 0.00 0.00 0.00 53 1014.4
20260502232345 73 8 0.0 0.0 0.00 0.00 0.00 54 1014.3
20260502231842 73 8 0.0 0.0 0.00 0.00 0.00 50 1014.4
20260502231340 73 9 0.0 0.0 0.00 0.00 0.00 45 1014.3
20260502230838 74 11 0.0 0.0 0.00 0.00 0.00 44 1014.4
20260502230336 74 12 0.0 0.0 0.00 0.00 0.00 49 1014.4
20260502225832 74 13 0.0 0.0 0.00 0.00 0.00 50 1014.4
20260502225329 74 12 0.0 0.0 0.00 0.00 0.00 49 1014.6
20260502224825 73 12 0.0 0.0 0.00 0.00 0.00 47 1014.7
20260502224322 73 27 0.0 0.0 0.00 0.00 0.00 48 1014.6
20260502223819 73 27 0.0 0.0 0.00 0.00 0.00 48 1014.9
20260502223317 72 27 0.0 0.9 0.00 0.00 0.00 48 1014.9
20260502222814 72 27 0.9 0.9 0.00 0.00 0.00 50 1015.0
20260502222306 73 28 0.0 0.9 0.00 0.00 0.00 51 1015.0
20260502221802 73 27 0.0 0.0 0.00 0.00 0.00 49 1015.3
20260502221258 73 27 0.0 0.0 0.00 0.00 0.00 51 1015.4
20260502220755 74 28 0.0 0.0 0.00 0.00 0.00 51 1015.4
20260502220251 73 29 0.0 0.0 0.00 0.00 0.00 53 1015.6
20260502215748 73 29 0.0 0.0 0.00 0.00 0.00 53 1015.5
20260502215245 73 29 0.0 0.0 0.00 0.00 0.00 53 1015.5
20260502214742 72 28 0.0 0.0 0.00 0.00 0.00 56 1015.6
20260502214239 71 28 0.0 0.0 0.00 0.00 0.00 55 1015.6
20260502213736 72 28 0.0 0.0 0.00 0.00 0.00 55 1015.6
20260502213233 71 29 0.0 0.0 0.00 0.00 0.00 58 1015.5